{"data":{"norad_id":63702,"epoch":"2026-05-25T04:24:15.009120Z","epoch_age_seconds":55069,"freshness":"FRESH","line1":"1 63702U 25087F   26145.18350705  .00021915  00000+0  71546-3 0  9990","line2":"2 63702  53.1573 224.0776 0001238  82.4095 277.7047 15.31718449 60917","mean_motion":15.31718449,"eccentricity":0.0001238,"inclination_deg":53.1573,"raan_deg":224.0776,"arg_perigee_deg":82.4095,"mean_anomaly_deg":277.7047,"bstar":0.00071546,"rev_number":6091,"period_min":94.012055605919,"perigee_km":469.83711610502,"apogee_km":471.53288443229,"semimajor_km":6848.8220002687,"source":"CELESTRAK","updated_at":"2026-05-25T13:38:20.096722Z"}}